| time (UTC) | temp F | wind direction | speed MPH | gust MPH | rain 1hr in | rain 24hr in | rain mn in | humidity % | barometer mb |
| 20260504004540 | 65 | 0 | 0.0 | 1.0 | 0.00 | 0.00 | 0.00 | 52 | 1017.0 |
| 20260504003046 | 68 | 200 | 0.0 | 3.0 | 0.00 | 0.00 | 0.00 | 48 | 1016.8 |
| 20260504001537 | 70 | 182 | 2.0 | 5.0 | 0.00 | 0.00 | 0.00 | 43 | 1016.9 |
| 20260504000047 | 71 | 211 | 4.0 | 8.0 | 0.00 | 0.00 | 0.00 | 42 | 1017.0 |
| 20260503234540 | 71 | 190 | 6.0 | 9.0 | 0.00 | 0.00 | 0.00 | 41 | 1017.2 |
| 20260503233040 | 71 | 195 | 6.0 | 10.0 | 0.00 | 0.00 | 0.00 | 40 | 1017.3 |
| 20260503231538 | 72 | 183 | 6.0 | 10.0 | 0.00 | 0.00 | 0.00 | 40 | 1017.3 |
| 20260503230045 | 72 | 205 | 5.0 | 11.0 | 0.00 | 0.00 | 0.00 | 39 | 1017.3 |
| 20260503224544 | 72 | 220 | 5.0 | 10.0 | 0.00 | 0.00 | 0.00 | 40 | 1017.5 |
| 20260503223041 | 73 | 226 | 6.0 | 9.0 | 0.00 | 0.00 | 0.00 | 37 | 1017.5 |
| 20260503221541 | 72 | 196 | 7.0 | 13.0 | 0.00 | 0.00 | 0.00 | 40 | 1017.9 |
| 20260503220038 | 73 | 207 | 3.0 | 8.0 | 0.00 | 0.00 | 0.00 | 40 | 1017.9 |
| 20260503214538 | 72 | 225 | 3.0 | 14.0 | 0.00 | 0.00 | 0.00 | 38 | 1018.1 |
| 20260503213037 | 73 | 285 | 4.0 | 14.0 | 0.00 | 0.00 | 0.00 | 38 | 1018.5 |
| 20260503211537 | 72 | 215 | 4.0 | 12.0 | 0.00 | 0.00 | 0.00 | 37 | 1018.7 |
| 20260503210040 | 72 | 285 | 5.0 | 13.0 | 0.00 | 0.00 | 0.00 | 37 | 1018.9 |
| 20260503204540 | 72 | 203 | 8.0 | 12.0 | 0.00 | 0.00 | 0.00 | 36 | 1019.1 |
| 20260503203043 | 72 | 276 | 4.0 | 10.0 | 0.00 | 0.00 | 0.00 | 38 | 1019.2 |
| 20260503201539 | 71 | 333 | 6.0 | 11.0 | 0.00 | 0.00 | 0.00 | 40 | 1019.5 |
| 20260503200038 | 71 | 222 | 6.0 | 11.0 | 0.00 | 0.00 | 0.00 | 38 | 1019.9 |
| 20260503194538 | 71 | 281 | 5.0 | 14.0 | 0.00 | 0.00 | 0.00 | 40 | 1020.1 |
| 20260503193042 | 71 | 307 | 2.0 | 13.0 | 0.00 | 0.00 | 0.00 | 39 | 1020.5 |
| 20260503191539 | 70 | 201 | 4.0 | 16.0 | 0.00 | 0.00 | 0.00 | 41 | 1020.7 |
| 20260503190038 | 69 | 230 | 3.0 | 14.0 | 0.00 | 0.00 | 0.00 | 42 | 1020.9 |
| 20260503184556 | 70 | 170 | 4.0 | 9.0 | 0.00 | 0.00 | 0.00 | 38 | 1021.1 |
| 20260503183037 | 69 | 183 | 4.0 | 15.0 | 0.00 | 0.00 | 0.00 | 43 | 1021.2 |
| 20260503181537 | 68 | 276 | 6.0 | 11.0 | 0.00 | 0.00 | 0.00 | 41 | 1021.5 |
| 20260503180039 | 68 | 229 | 3.0 | 13.0 | 0.00 | 0.00 | 0.00 | 43 | 1021.8 |
| 20260503174540 | 68 | 213 | 6.0 | 12.0 | 0.00 | 0.00 | 0.00 | 44 | 1022.0 |
| 20260503173038 | 67 | 197 | 2.0 | 12.0 | 0.00 | 0.00 | 0.00 | 44 | 1022.4 |
| 20260503171602 | 66 | 302 | 1.0 | 10.0 | 0.00 | 0.00 | 0.00 | 44 | 1022.7 |
| 20260503081540 | 42 | 0 | 0.0 | 0.0 | 0.00 | 0.00 | 0.00 | 89 | 1021.9 |
| 20260503071603 | 42 | 0 | 0.0 | 0.0 | 0.00 | 0.00 | 0.00 | 88 | 1021.7 |
| 20260503054556 | 45 | 0 | 0.0 | 0.0 | 0.00 | 0.00 | 0.00 | 84 | 1021.8 |
| 20260503053041 | 45 | 0 | 0.0 | 0.0 | 0.00 | 0.00 | 0.00 | 83 | 1021.8 |
| 20260503051539 | 46 | 0 | 0.0 | 0.0 | 0.00 | 0.00 | 0.00 | 82 | 1021.7 |
| 20260503050048 | 46 | 0 | 0.0 | 0.0 | 0.00 | 0.00 | 0.00 | 82 | 1021.6 |
| 20260503044549 | 46 | 0 | 0.0 | 0.0 | 0.00 | 0.00 | 0.00 | 80 | 1021.6 |
| 20260503043045 | 47 | 0 | 0.0 | 0.0 | 0.00 | 0.00 | 0.00 | 78 | 1021.5 |
| 20260503041537 | 48 | 0 | 0.0 | 0.0 | 0.00 | 0.00 | 0.00 | 75 | 1021.4 |
| 20260503040041 | 50 | 0 | 0.0 | 0.0 | 0.00 | 0.00 | 0.00 | 73 | 1021.3 |
| 20260503034538 | 52 | 0 | 0.0 | 1.0 | 0.00 | 0.00 | 0.00 | 72 | 1021.2 |
| 20260503033038 | 53 | 0 | 0.0 | 5.0 | 0.00 | 0.00 | 0.00 | 69 | 1021.2 |
| 20260503031537 | 53 | 45 | 0.0 | 2.0 | 0.00 | 0.00 | 0.00 | 69 | 1021.1 |
| 20260503030044 | 54 | 0 | 0.0 | 4.0 | 0.00 | 0.00 | 0.00 | 67 | 1021.0 |
| 20260503024540 | 55 | 21 | 1.0 | 4.0 | 0.00 | 0.00 | 0.00 | 65 | 1020.9 |
| 20260503023041 | 56 | 0 | 2.0 | 6.0 | 0.00 | 0.00 | 0.00 | 64 | 1020.8 |
| 20260503021544 | 56 | 42 | 1.0 | 4.0 | 0.00 | 0.00 | 0.00 | 62 | 1020.5 |
| 20260503020048 | 57 | 30 | 1.0 | 4.0 | 0.00 | 0.00 | 0.00 | 60 | 1020.1 |
| 20260503014537 | 58 | 52 | 2.0 | 10.0 | 0.00 | 0.00 | 0.00 | 58 | 1019.9 |
| 20260503013042 | 59 | 17 | 3.0 | 9.0 | 0.00 | 0.00 | 0.00 | 56 | 1019.5 |
| 20260503011549 | 59 | 20 | 3.0 | 10.0 | 0.00 | 0.00 | 0.00 | 51 | 1019.3 |
| 20260503010041 | 60 | 323 | 1.0 | 5.0 | 0.00 | 0.00 | 0.00 | 48 | 1018.9 |